Weather History for KMTC - December, 2013

Change the Weather History Date:

Monday, December 16, 2013

  Actual Average Record
Temperature  
Mean Temperature 14 °F -  
Max Temperature 20 °F 35 °F 61 °F (1984)
Min Temperature 8 °F 24 °F -4 °F (1951)
Degree Days  
Heating Degree Days 51    
Moisture  
Dew Point 8 °F    
Average Humidity 75    
Maximum Humidity 93    
Minimum Humidity 52    
Precipitation  
Precipitation 0.00 in - - ()
Snow  
Snow 0.00 in - - ()
Snow Depth 6.00 in    
Sea Level Pressure  
Sea Level Pressure 30.08 in    
Wind  
Wind Speed 7 mph (SE)    
Max Wind Speed 12 mph    
Max Gust Speed -    
Visibility 9 miles    
Events Snow    
Averages and records for this station are not official NWS values.
T = Trace of Precipitation, MM = Missing Value Source: NWS Daily Summary

Daily Weather History Graph

Daily Weather History Graph

Search for Another Location

Airport or City:

Trip Planner

Search our weather history database for the weather conditions in past years. The results will help you decide how hot, cold, wet, or windy it might be!

Date:

Astronomy

Dec. 16, 2013 Rise Set
Actual Time 7:55 AM EST 4:59 PM EST
Civil Twilight 7:23 AM EST 5:31 PM EST
Nautical Twilight 6:47 AM EST 6:06 PM EST
Astronomical Twilight 6:13 AM EST 6:41 PM EST
Moon 4:49 PM EST (12/16) 7:01 AM EST (12/16)
Length of Visible Light 10h 08m
Length of Day
9h 03m
Full, 100% of the Moon is Illuminated
Dec 16
Full
Dec 17
Full
Dec 25
Last Quarter
Jan 1
New
Jan 7
First Quarter

Hourly Weather History & Observations

Time (EST) Temp. Windchill Dew Point Humidity Pressure Visibility Wind Dir Wind Speed Gust Speed Precip Events Conditions
12:58 AM 11.5 °F -0.2 °F 4.1 °F 72% 30.02 in 10.0 mi West 8.1 mph - N/A   Clear
1:58 AM 11.5 °F -0.2 °F 4.1 °F 72% 30.03 in 10.0 mi West 8.1 mph - N/A   Clear
2:58 AM 11.7 °F -1.7 °F 2.8 °F 68% 30.06 in 10.0 mi West 10.4 mph - N/A   Clear
3:58 AM 11.1 °F -0.6 °F 2.8 °F 69% 30.06 in 10.0 mi WSW 8.1 mph - N/A   Partly Cloudy
4:33 AM 12.2 °F -1.8 °F 3.2 °F 67% 30.03 in 10.0 mi West 11.5 mph - N/A   Mostly Cloudy
4:58 AM 13.3 °F 0.3 °F 3.7 °F 66% 30.09 in 10.0 mi West 10.4 mph - N/A   Overcast
5:23 AM 12.2 °F -0.2 °F 3.2 °F 67% 30.04 in 10.0 mi West 9.2 mph - N/A   Scattered Clouds
5:58 AM 11.7 °F 0.0 °F 3.6 °F 70% 30.10 in 10.0 mi West 8.1 mph - N/A   Clear
6:58 AM 10.4 °F 0.8 °F 3.7 °F 74% 30.11 in 10.0 mi West 5.8 mph - N/A   Clear
7:55 AM 9.7 °F -0.1 °F 3.9 °F 77% 30.13 in 10.0 mi WNW 5.8 mph - N/A   Clear
8:55 AM 10.6 °F 1.0 °F 4.5 °F 76% 30.16 in 10.0 mi WNW 5.8 mph - N/A   Partly Cloudy
9:55 AM 12.4 °F 2.0 °F 5.4 °F 73% 30.18 in 10.0 mi NW 6.9 mph - N/A   Clear
10:55 AM 15.6 °F 4.9 °F 6.6 °F 68% 30.16 in 10.0 mi NW 8.1 mph - N/A   Clear
11:55 AM 18.0 °F 11.1 °F 6.6 °F 61% 30.18 in 10.0 mi NW 4.6 mph - N/A   Clear
12:55 PM 20.1 °F - 5.2 °F 52% 30.15 in 12.0 mi Calm Calm - N/A   Mostly Cloudy
1:55 PM 19.9 °F 13.4 °F 6.4 °F 56% 30.14 in 12.0 mi SSE 4.6 mph - N/A   Mostly Cloudy
2:55 PM 19.0 °F 12.3 °F 7.7 °F 61% 30.15 in 12.0 mi SSE 4.6 mph - N/A   Scattered Clouds
3:55 PM 17.6 °F 10.7 °F 8.2 °F 67% 30.15 in 12.0 mi SE 4.6 mph - N/A   Partly Cloudy
4:55 PM 12.9 °F 3.8 °F 4.5 °F 69% 30.14 in 12.0 mi SE 5.8 mph - N/A   Partly Cloudy
5:55 PM 10.2 °F 0.6 °F 5.7 °F 82% 30.14 in 12.0 mi SSE 5.8 mph - N/A   Partly Cloudy
6:55 PM 8.8 °F -2.4 °F 3.9 °F 81% 30.14 in 12.0 mi SSE 6.9 mph - N/A   Partly Cloudy
7:55 PM 10.6 °F 2.5 °F 6.1 °F 82% 30.14 in 12.0 mi SE 4.6 mph - N/A   Scattered Clouds
8:58 PM 13.6 °F 2.5 °F 5.2 °F 69% 30.10 in 10.0 mi ESE 8.1 mph - N/A   Clear
9:58 PM 14.7 °F 5.9 °F 9.3 °F 79% 30.09 in 10.0 mi East 5.8 mph - N/A   Scattered Clouds
10:53 PM 17.6 °F 9.3 °F 12.2 °F 79% 30.01 in 10.0 mi East 5.8 mph - N/A Snow Light Snow
10:58 PM 18.1 °F 8.9 °F 12.6 °F 79% 30.06 in 10.0 mi East 6.9 mph - 0.00 in Snow Light Snow
11:03 PM 17.6 °F 8.2 °F 14.0 °F 86% 30.00 in 5.0 mi East 6.9 mph - N/A Snow Light Snow
11:08 PM 17.6 °F 8.2 °F 14.0 °F 86% 30.00 in 3.0 mi East 6.9 mph - N/A Snow Light Snow
11:13 PM 17.6 °F 8.2 °F 14.0 °F 86% 30.00 in 2.5 mi East 6.9 mph - N/A Snow Light Snow
11:18 PM 17.6 °F 8.2 °F 14.0 °F 86% 30.00 in 3.0 mi East 6.9 mph - N/A Snow Light Snow
11:23 PM 17.6 °F 8.2 °F 14.0 °F 86% 29.99 in 3.0 mi East 6.9 mph - N/A Snow Light Snow
11:38 PM 17.6 °F 8.2 °F 15.8 °F 93% 29.98 in 4.0 mi East 6.9 mph - N/A Snow Light Snow
11:48 PM 17.6 °F 8.2 °F 15.8 °F 93% 29.98 in 5.0 mi East 6.9 mph - N/A Snow Light Snow
11:58 PM 18.1 °F 7.9 °F 15.4 °F 89% 30.01 in 2.0 mi East 8.1 mph - 0.00 in Snow Light Snow